SCP
4 4 5 5 4 3 3 2 2 2 2 2 1 1 1 1 1 1 2 3 4 3 2 2 2 2 2 2 2 2 3 3 3 3 3 3 3 3 3 3 3 2 2
5 5 5 6 5 4 3 2 2 2 2 2 1 1 2 2 2 2 2 2 2 2 2 2 2 2 2 2 2 2 3 3 3 3 3 3 3 3 3 3 2 2 2
6 5 5 6 6 5 4 4 3 3 2 2 1 1 2 2 3 2 2 1 2 2 2 2 2 2 2 2 2 2 2 3 3 3 3 3 3 3 3 2 2 2 2
8 7 6 7 7 7 6 5 4 4 3 2 1 1 2 3 3 3 2 2 2 2 2 2 2 2 2 2 2 2 2 2 2 3 3 3 3 3 3 2 2 2 2
10 9 7 7 8 7 7 7 6 5 4 2 2 1 1 2 3 3 3 2 2 2 1 1 2 2 2 2 2 2 2 2 2 3 3 3 3 3 3 2 2 2 2
12 11 8 7 7 7 7 7 7 6 4 3 2 2 1 2 2 3 3 3 2 2 1 2 2 2 2 2 2 2 2 2 2 2 3 3 3 3 3 3 2 2 2
14 12 10 8 7 7 7 8 7 6 4 4 3 2 2 2 2 2 4 4 3 2 2 2 2 2 2 2 2 2 2 2 2 2 2 3 3 3 3 3 2 2 2
13 12 10 8 7 7 8 8 7 6 5 4 3 3 2 2 2 2 4 4 4 3 2 2 3 3 2 2 2 2 2 2 2 2 2 3 3 3 3 3 2 2 2
11 10 8 7 7 7 8 8 7 6 5 4 3 3 3 2 2 2 3 4 4 4 3 3 3 3 3 2 2 2 1 2 2 2 2 2 3 3 3 3 3 2 2
8 7 6 6 6 6 7 6 6 6 5 4 3 3 3 2 2 2 3 3 4 4 3 3 3 3 3 3 2 2 1 1 1 2 2 2 3 3 3 3 3 3 3
5 5 5 5 5 5 5 5 5 6 5 4 3 3 3 3 2 2 2 2 3 3 3 3 3 3 3 3 3 2 1 1 1 1 2 2 3 3 4 4 4 3 3
5 5 5 5 5 5 4 4 4 4 4 4 3 3 3 3 3 2 2 2 2 2 2 2 3 3 3 3 2 1 1 1 1 1 1 2 2 3 4 4 4 4 3
7 7 6 6 5 4 4 3 3 3 4 3 3 3 3 3 3 2 2 1 1 1 2 2 2 3 3 3 2 1 1 1 1 1 1 1 1 2 3 3 3 3 3
8 8 8 6 5 4 3 3 3 3 3 3 3 3 3 3 3 2 2 1 1 1 1 2 2 2 2 2 2 1 1 1 0 0 0 0 1 1 2 2 2 2 2
9 9 9 7 5 4 3 3 3 3 3 3 3 3 3 3 2 2 1 1 1 1 1 1 2 2 3 2 2 1 1 1 0 0 0 0 0 1 1 1 1 1 1
11 11 9 7 5 4 3 3 3 2 2 2 2 2 2 2 2 2 1 1 1 1 1 1 2 3 3 2 2 2 2 1 0 0 0 0 0 0 1 1 1 1 1
13 12 10 7 5 4 4 3 3 2 2 2 2 2 2 2 2 2 2 2 2 1 1 1 2 2 2 2 2 2 2 1 0 0 0 0 0 0 0 0 0 0 0
13 11 10 8 6 4 3 3 2 2 2 2 1 1 1 1 1 2 2 2 2 2 1 1 2 2 2 2 2 2 2 1 1 0 0 0 0 0 0 0 0 0 0
11 10 9 7 5 3 2 2 2 2 2 1 1 1 1 1 1 2 2 3 3 2 2 2 2 2 3 2 2 2 1 1 1 0 0 0 0 0 0 0 0 0 0
9 9 8 6 3 2 1 1 1 1 1 1 1 1 1 1 1 2 3 3 3 3 2 2 2 2 2 2 2 2 1 1 1 0 0 0 0 0 0 0 0 0 0
8 8 6 4 2 1 0 0 1 1 1 1 1 1 1 1 1 2 2 3 3 3 3 3 3 2 2 2 2 2 1 1 1 0 0 0 0 0 0 0 0 0 0
7 6 5 3 1 0 0 0 0 1 1 1 1 1 1 1 1 1 1 2 2 3 3 3 3 2 2 2 2 2 1 1 1 0 0 0 0 0 0 0 0 0 0
6 5 3 2 1 0 0 0 0 1 1 1 1 1 1 1 1 1 1 1 1 1 2 2 2 2 2 2 2 2 1 1 1 0 0 0 0 0 0 0 0 0 0
4 3 2 1 1 0 0 0 0 0 0 1 1 1 1 1 1 1 1 1 1 1 1 1 2 2 1 2 2 2 1 1 1 0 0 0 0 0 0 0 0 0 0
3 2 1 1 1 0 0 0 0 0 0 0 1 1 1 1 1 1 1 2 2 1 1 1 1 1 1 1 1 1 1 1 0 0 0 0 0 0 0 0 0 0 0
2 1 1 0 1 0 0 0 0 0 0 0 0 0 0 0 0 0 1 2 2 1 0 0 0 0 0 0 1 1 1 1 0 0 0 0 0 0 0 0 0 0 0
Wind_Speed
1 1 0 1 2 1 1 2 2 2 3 3 4 4 3 3 2 1 2 6 7 7 7 7 7 7 8 8 8 7 7 9 9 9 9 9 9 10 10 11 11 11 12
1 0 1 1 1 1 1 2 3 3 3 2 3 3 3 3 1 2 2 4 7 8 8 8 8 8 9 9 9 8 8 8 9 9 9 10 10 10 10 11 11 12 12
1 1 1 1 1 1 2 2 3 2 3 3 3 3 3 3 3 2 3 3 4 8 10 9 9 9 9 10 9 9 9 9 9 9 10 10 10 10 10 10 11 11 12
2 2 1 1 1 2 2 2 1 2 3 3 3 3 3 3 4 4 3 3 3 3 7 9 9 9 9 10 10 10 10 10 10 10 10 10 10 10 10 10 10 10 11
2 1 1 1 2 2 2 2 1 2 3 3 4 4 3 3 3 5 4 4 3 3 3 7 10 10 10 10 10 10 11 11 11 10 11 10 10 10 9 10 10 11 11
2 2 2 1 2 2 2 2 2 3 3 4 5 5 3 4 3 3 4 4 3 4 3 4 4 6 9 9 9 9 9 10 10 10 10 10 9 9 9 10 10 11 11
2 2 2 2 3 2 2 3 3 4 4 3 3 4 4 5 4 3 3 3 3 4 3 3 3 3 4 8 8 8 9 9 9 9 10 10 9 9 9 10 10 11 11
2 3 2 2 3 3 3 3 3 3 4 3 2 3 3 2 3 4 3 3 4 3 4 5 4 3 3 3 5 9 9 9 9 9 9 8 9 9 9 9 10 10 11
2 2 2 2 2 3 2 3 3 3 3 3 2 2 2 2 3 2 4 4 4 3 4 3 4 4 4 3 3 7 9 9 9 9 9 8 8 8 9 10 10 10 11
3 3 2 2 2 2 2 3 2 2 3 4 3 3 3 3 3 3 3 3 3 4 4 4 4 3 4 3 4 6 8 9 9 9 9 8 8 8 9 9 10 11 11
3 3 2 2 1 2 2 3 3 3 2 3 3 3 3 3 4 3 4 4 3 3 3 4 3 3 3 3 3 5 8 9 9 9 9 9 9 9 9 9 10 11 12
2 2 2 1 1 2 2 2 3 3 2 3 3 3 3 3 3 3 4 4 4 3 3 3 3 3 3 3 5 7 8 10 10 11 10 10 10 10 10 10 11 11 11
1 1 1 1 1 2 2 2 2 2 3 3 3 3 3 3 3 3 4 4 5 4 3 3 3 2 3 2 3 7 8 11 11 11 11 11 11 11 11 11 11 11 11
0 1 1 1 1 2 3 2 2 3 2 2 3 4 3 3 2 3 3 4 5 4 4 4 2 2 3 2 3 6 5 9 11 11 11 11 11 11 11 11 10 10 10
1 0 1 1 1 2 2 2 2 3 2 2 3 3 3 3 3 3 3 3 3 5 5 4 2 2 2 2 4 4 4 8 10 11 11 12 12 12 12 11 10 10 9
1 2 2 2 2 2 2 2 3 3 2 3 2 3 3 3 3 3 3 3 3 4 5 4 3 2 2 3 4 4 4 7 10 12 13 13 13 13 12 12 11 11 10
2 2 2 2 2 2 2 2 3 3 3 4 4 3 3 3 3 3 4 4 3 3 5 5 4 3 3 4 3 3 4 4 5 10 12 13 14 13 12 12 11 11 11
1 1 2 2 2 2 2 2 3 3 4 4 4 4 4 4 4 4 4 4 4 3 3 5 5 4 4 3 4 4 4 4 4 7 11 12 13 13 13 12 11 11 10
1 2 2 1 2 2 2 3 3 4 4 4 4 4 4 4 4 4 4 4 4 4 3 4 5 4 3 4 4 4 4 2 3 4 6 9 10 11 11 11 11 11 11
1 2 2 2 2 2 3 4 5 4 4 4 3 3 3 3 4 4 4 4 4 4 4 4 4 3 3 3 3 3 3 2 3 4 3 3 6 9 10 11 11 12 12
2 2 2 2 3 2 3 5 5 5 5 4 4 3 3 3 4 4 4 4 4 3 4 4 4 3 3 3 3 3 4 3 3 3 2 3 3 3 5 8 10 12 12
2 2 3 3 4 4 5 5 5 5 4 5 5 4 3 3 4 5 5 6 5 4 4 3 4 4 4 4 3 4 3 4 3 2 2 4 3 3 4 5 8 11 12
2 2 2 2 3 4 5 6 8 5 4 4 3 3 4 4 5 4 5 6 5 6 5 4 4 5 5 4 4 4 4 4 4 4 2 4 3 4 4 4 6 9 11
2 2 2 1 2 4 5 6 8 4 4 3 2 2 3 3 5 5 5 5 4 5 5 3 4 5 6 4 4 4 4 4 4 4 2 3 3 3 4 3 6 9 10
2 1 1 1 2 3 5 5 6 4 3 4 3 3 3 3 4 5 4 5 5 5 7 6 6 7 8 8 5 3 3 3 4 4 2 2 2 3 3 2 3 8 10
2 1 1 1 2 3 4 5 5 3 4 4 3 2 4 4 4 4 3 4 5 6 6 7 6 7 5 5 4 3 3 3 4 4 2 2 3 2 3 2 2 2 4
Wind_Direction
200 203 184 224 250 241 229 260 272 271 269 268 267 266 272 264 250 253 173 185 190 204 221 233 240 245 247 246 243 243 238 230 228 225 221 220 222 224 224 222 219 215 211
136 279 235 235 258 271 261 258 268 268 260 261 266 270 273 284 255 250 215 204 204 210 221 229 238 246 249 248 245 243 239 234 232 229 226 223 221 223 225 224 221 218 215
152 229 248 235 263 275 270 263 273 277 270 272 272 273 262 255 261 238 243 230 212 217 222 223 231 239 246 246 246 244 240 236 232 231 229 225 223 222 224 225 224 221 218
193 237 245 246 287 272 256 263 272 290 288 282 276 269 264 244 243 236 238 245 230 227 222 223 229 234 240 246 245 245 242 239 234 231 231 228 227 224 222 221 222 221 220
197 231 249 253 265 272 270 277 280 276 278 276 271 256 254 253 235 243 232 244 244 237 226 220 226 231 235 244 248 248 245 241 238 235 234 231 227 222 221 221 221 220 221
211 235 240 235 264 269 270 278 285 270 272 271 278 276 258 256 243 234 235 241 237 245 241 231 216 228 229 234 242 246 246 242 238 238 235 230 227 225 223 223 222 221 221
213 245 272 264 266 264 269 272 274 276 274 271 284 287 268 245 236 232 229 237 235 242 248 232 216 222 220 226 227 233 241 242 240 239 236 233 231 229 225 224 225 223 221
224 239 244 273 275 276 271 270 275 276 282 276 274 294 292 270 248 246 223 226 238 236 239 243 226 217 217 204 213 221 232 234 237 238 236 235 233 234 232 229 228 226 224
227 248 240 262 275 276 279 279 266 268 279 286 269 264 284 291 311 269 256 240 226 228 235 241 227 218 218 209 204 216 223 224 230 237 239 235 234 234 235 235 236 231 226
226 238 240 249 261 278 286 281 285 278 277 281 279 257 256 278 282 294 281 267 259 245 240 250 249 224 223 210 206 202 209 214 220 228 233 232 232 232 233 235 239 235 231
232 242 242 251 273 279 284 297 299 288 279 276 284 285 283 278 260 264 284 286 278 260 249 243 246 241 229 213 208 209 206 208 211 219 225 227 229 232 233 233 237 238 233
223 233 242 263 282 283 291 293 289 291 288 284 286 285 287 287 284 277 278 281 278 270 259 243 235 232 229 223 228 221 205 207 211 216 223 228 229 232 235 236 235 237 238
229 224 291 288 289 285 280 283 284 281 280 282 285 287 288 288 292 287 285 286 284 278 267 249 234 229 235 219 224 214 212 211 213 217 221 226 229 232 235 237 237 236 237
261 144 240 265 265 279 292 290 285 279 280 277 292 294 292 292 288 279 279 286 290 285 272 267 251 233 236 223 216 215 213 215 219 220 222 226 226 228 230 232 235 235 236
289 278 260 267 273 281 293 295 291 289 297 293 291 290 292 295 292 285 283 281 279 289 286 278 272 257 250 234 211 214 214 222 222 219 221 225 225 223 225 225 227 230 232
290 278 261 257 268 279 290 294 289 290 293 293 284 287 294 300 305 306 297 292 285 280 285 286 280 277 282 281 243 237 229 222 223 222 223 224 223 221 223 224 223 224 225
273 265 274 275 273 277 286 285 285 296 299 298 297 297 292 299 306 308 310 306 298 292 285 291 292 291 282 279 277 264 245 223 223 223 223 221 218 217 218 220 220 220 222
288 293 286 288 284 293 296 292 301 304 299 296 297 304 303 309 304 303 303 301 301 298 289 297 300 296 291 282 269 266 272 264 244 230 222 219 217 216 216 216 217 217 218
309 291 282 290 318 336 337 327 314 312 307 306 312 316 312 311 303 303 303 309 308 309 303 295 293 292 291 299 297 283 278 281 286 268 231 225 225 220 218 217 217 215 216
318 330 332 341 346 5 357 338 328 317 314 312 311 309 308 305 307 313 316 326 325 322 316 307 302 302 304 313 322 308 302 297 289 288 286 260 238 224 223 221 220 217 215
346 0 354 353 358 6 359 354 337 327 324 317 312 316 333 360 7 348 344 336 329 325 321 316 317 319 322 328 323 317 306 297 285 267 266 267 246 229 226 229 226 222 219
1 357 3 5 10 2 3 358 344 325 320 317 317 328 328 24 12 349 333 323 312 309 312 312 313 316 314 314 313 310 308 309 299 274 270 278 270 249 232 222 218 215 214
354 355 6 14 20 19 7 356 348 326 319 319 324 328 339 9 9 354 331 319 310 299 283 281 297 301 302 304 308 306 303 303 290 279 278 276 271 268 259 248 214 213 212
345 343 358 7 35 29 19 8 349 329 329 334 336 360 24 2 353 353 332 333 330 330 309 295 288 290 296 295 287 283 285 293 289 284 268 271 267 264 268 239 208 210 211
330 328 356 29 57 48 29 18 360 342 344 341 354 28 32 12 0 351 339 331 328 324 325 326 306 295 292 292 289 295 292 294 296 296 285 272 274 277 274 267 235 218 214
330 347 27 42 74 73 36 22 5 350 349 347 357 38 36 4 345 348 333 322 319 320 325 324 317 308 305 297 286 260 278 291 299 300 312 305 292 301 286 259 242 226 220